Location: Unspecified
(0.0000°N, 0.0000°E)
Time: 04:54:42
(UTC+00:00)

deb West Ford - Pass Details

Date: 21 May 2026
Orbit: 2163 x 4941 km, 86.7° (Epoch: 8 June)

Event Time Altitude Azimuth Distance (km) Brightness Sun altitude
Exits shadow 02:25:13 28° 335° (NNW) 3,522 ? -48.4°
Drops below altitude 10° 02:29:25 10° 345° (NNW) 4,684 ? -47.5°
Sets 02:32:37 0° 349° (N) 5,677 ? -46.8°
